Regional Weather Roundup
Issued by NWS

Home | Current Version | Previous Version | Graphics & Text | Print | Product List | Glossary On
Versions: 1 2 3 4 5 6 7 8 9 10 11 12 13 14 15 16 17 18 19 20 21 22 23 24 25 26 27 28 29 30 31 32 33 34 35 36 37 38 39 40 41 42 43 44 45 46 47 48 49 50
000
ASUS43 KLMK 240502
RWRKY
KENTUCKY REGIONAL WEATHER ROUNDUP
NATIONAL WEATHER SERVICE LOUISVILLE KY
100 AM EDT TUE OCT 24 2017

NOTE "FAIR" INDICATES FEW OR NO CLOUDS BELOW 12,000 FEET
WITH NO SIGNIFICANT WEATHER AND/OR OBSTRUCTIONS TO VISIBILITY.

KYZ001>023-026-027-061>063-070>075-240600-
WESTERN AND SOUTH CENTRAL KENTUCKY

CITY           SKY/WX    TMP DP  RH WIND       PRES   REMARKS
PADUCAH        PTCLDY    56  45  66 W6        29.86S
HENDERSON      CLOUDY    53  50  89 W7        29.80F
OWENSBORO      LGT RAIN  54  49  83 W9        29.80S
HOPKINSVILLE   CLOUDY    56  46  69 W12       29.84R
BOWLING GREEN  CLOUDY    54  49  83 S10       29.81F
GLASGOW        NOT AVBL
$$

KYZ024-025-028>034-038-045-046-053-240600-
NORTH CENTRAL KENTUCKY

CITY           SKY/WX    TMP DP  RH WIND       PRES   REMARKS
LOUISVILLE/SDF LGT RAIN  51  48  89 SE6       29.78F
LOUISVILLE/LOU LGT RAIN  50  49  96 S9        29.79F
FORT KNOX      LGT RAIN  49  46  87 S8        29.77F
$$

KYZ035>037-039>044-047>052-055>060-089>105-240600-
NORTHEAST KENTUCKY

CITY           SKY/WX    TMP DP  RH WIND       PRES   REMARKS
LEXINGTON      CLEAR     48  44  86 SW12      29.82F
COVINGTON      PTCLDY    46  46 100 SW8       29.75F
FRANKFORT      PTCLDY    48  44  86 SW8       29.80F
$$

KYZ054-064>069-076>088-106>120-240600-
SOUTHEAST KENTUCKY

CITY           SKY/WX    TMP DP  RH WIND       PRES   REMARKS
JACKSON        LGT RAIN  50  48  93 VRB6      29.84S FOG
LONDON         CLEAR     48  46  93 S6        29.89S
SOMERSET       NOT AVBL
MIDDLESBORO    CLEAR     51  46  83 W3        29.92R
MONTICELLO     CLEAR     48  45  89 NE5       29.89F
$$





USA.gov is the U.S. government's official web portal to all federal, state and local government web resources and services.